CZ-4 DEB, 26151

Orbit data source: Space-Track

CZ-4 DEB, 26151 is space debris in SSO originally from a launch on Thu, 14 Oct 1999 UTC launched from the Taiyaun Space Center, China (TSC). Debris objects in space refer to the collection of defunct objects orbiting the Earth. Examples of debris include non-operational satellites, rocket bodies, and fragments generated from explosions, collisions, or faulty payload assembly.

Loading next visibility...
Identifier
26151, 1999-057AM
Orbit
SSO
Last TLE update
16 hours ago
Origin
Manufacturer
Unknown
Mission
Spacecraft
Bus & Motor
Unknown
Mass
Unknown
Launch date (UTC)
1999-10-14 (26 years ago)
Launch vehicle
Unknown
Launch site
Taiyaun Space Center, China (TSC)
Object type
Payload
Rocket body
Debris
Shape & HBR
Unknown
Radar Cross Section
Medium (>0.1 m² and <1 m²)

Expand to show TLE details & history

TLE from 16 hours ago
0 CZ-4 DEB
1 26151U 99057AM  25199.85272102 -.00000033  00000-0  80376-5 0  9994
2 26151  99.4173 161.8400 0610162 239.6307 143.9844 13.18655728214901
Epoch: 2025-07-18T20:27Z
TLE epoch observation values (Epoch: 2025-07-18T20:27:55.096Z)
Latitude
27.1167°
Longitude
-86.88671°
Altitude
1,575.659 km
Speed
6.901 km/s
True Right ascension
10h 27m 57s
True Declination
26° 59' 30"
Sunlit
Object was in daylight at epoch
Visualization orbit readout
Latitude
-49.59409°
Longitude
87.37482°
Altitude
750.946 km
Speed
7.702 km/s
Apparent Right ascension
17h 13m 08s
Apparent Declination
-69° 57' 57"
Sunlit
Object is in full shadow
Visualization observer readout
Local Sidereal Time
00:54:39
Azimuth
206.297° SW
Elevation
-45.68°
Doppler factor
1
Orbital elements
Apogee altitude
1,648.78 km
Perigee altitude
725.567 km
Semi-major axis
7,565.31 km
Eccentricity
0.06102
Inclination
99.4173°
RAAN
161.84°
Arg. of periapsis
239.6307°
True anomaly
147.85338°
Mean anomaly
143.9844°
Eccentric anomaly
145.94224°
Mean motion
3.2984 °/min
Orbital period
109.14 mins
BSTAR
0.0000080376
Loading maneuver chart data...
Loading SW <> Apogee altitude chart data...
Loading historical data...
Loading historical data...
Loading historical data...
Loading historical data...
Loading historical data...
Loading historical data...
Loading historical data...
|